Location: Forst
(46.9333°N, 15.4333°E)
Time: 20:23:37
(UTC+00:00)

BREEZE-M DEB (TANK) - Pass Details

Date: 01 December 2020
Orbit: 433 x 13849 km, 45.9° (Epoch: 27 January)

Event Time Altitude Azimuth Distance (km) Brightness Sun altitude
Rises 17:39:00 0° 232° (SW) 3,131 7.1 -24.5°
Reaches altitude 10° 17:41:50 10° 221° (SW) 1,756 5.5 -24.9°
Enters shadow 17:43:24 21° 202° (SSW) 1,083 4.1 -25.2°
